GW2002 Weather Reports


time (UTC)temp
C
wind
direction
speed
KPH
gust
KPH
rain 1hr
cm
rain 24hr
cm
rain mn
cm
humidity
%
barometer
mb
20260906174950 35 174 6.4 11.3 0.00 0.00 0.00 53 1015.1
20260906174449 35 152 6.4 8.0 0.00 0.00 0.00 52 1015.2
20260906173944 34 165 6.4 9.7 0.00 0.00 0.00 53 1014.9
20260906173439 34 168 9.7 9.7 0.00 0.00 0.00 53 1015.1
20260906172939 34 163 6.4 12.9 0.00 0.00 0.00 53 1015.2
20260906172436 34 172 4.8 8.0 0.00 0.00 0.00 54 1015.2
20260906171931 34 180 8.0 12.9 0.00 0.00 0.00 53 1015.2
20260906171425 34 169 6.4 9.7 0.00 0.00 0.00 53 1015.4
20260906170921 34 162 8.0 8.0 0.00 0.00 0.00 53 1015.5
20260906170417 35 165 8.0 8.0 0.00 0.00 0.00 53 1015.5
20260906165913 34 167 6.4 6.4 0.00 0.00 0.00 53 1015.5
20260906165412 33 171 6.4 8.0 0.00 0.00 0.00 58 1015.8
20260906164908 33 120 3.2 9.7 0.00 0.00 0.00 57 1015.8
20260906164406 34 180 9.7 12.9 0.00 0.00 0.00 54 1015.9
20260906163903 33 121 1.6 4.8 0.00 0.00 0.00 56 1015.8
20260906163359 33 180 3.2 6.4 0.00 0.00 0.00 57 1016.0
20260906162856 33 156 6.4 6.4 0.00 0.00 0.00 57 1016.0
20260906162355 32 44 4.8 6.4 0.00 0.00 0.00 59 1016.0
20260906161851 32 176 4.8 6.4 0.00 0.00 0.00 58 1016.1
20260906161350 32 176 6.4 8.0 0.00 0.00 0.00 59 1016.0
20260906160849 32 175 6.4 9.7 0.00 0.00 0.00 60 1016.1
20260906160343 32 199 9.7 9.7 0.00 0.00 0.00 60 1015.9
20260906155841 32 165 4.8 8.0 0.00 0.00 0.00 61 1016.0
20260906155335 32 41 4.8 6.4 0.00 0.00 0.00 62 1015.8
20260906154832 32 170 3.2 6.4 0.00 0.00 0.00 62 1016.1
20260906154326 31 121 1.6 4.8 0.00 0.00 0.00 64 1015.9
20260906153824 31 64 3.2 4.8 0.00 0.00 0.00 64 1015.9
20260906153324 31 70 0.0 6.4 0.00 0.00 0.00 64 1015.4
20260906152819 31 143 4.8 4.8 0.00 0.00 0.00 66 1015.5
20260906152314 31 142 0.0 6.4 0.00 0.00 0.00 65 1015.7
20260906151814 31 167 9.7 9.7 0.00 0.00 0.00 65 1015.8
20260906151309 30 170 6.4 9.7 0.00 0.00 0.00 66 1015.7
20260906150804 30 173 9.7 11.3 0.00 0.00 0.00 67 1015.7
20260906150300 30 144 6.4 11.3 0.00 0.00 0.00 68 1015.8
20260906145759 30 178 8.0 11.3 0.00 0.00 0.00 67 1015.7
20260906145258 30 154 8.0 14.5 0.00 0.00 0.00 68 1015.5
20260906144754 29 137 4.8 8.0 0.00 0.00 0.00 69 1015.4
20260906144254 29 164 8.0 11.3 0.00 0.00 0.00 68 1015.8
20260906143753 29 101 4.8 14.5 0.00 0.00 0.00 68 1015.9
20260906143250 29 170 8.0 8.0 0.00 0.00 0.00 68 1015.8
20260906142750 29 171 6.4 11.3 0.00 0.00 0.00 69 1015.7
20260906142246 28 140 6.4 8.0 0.00 0.00 0.00 70 1016.2
20260906141744 28 148 9.7 11.3 0.00 0.00 0.00 69 1016.0
20260906141239 28 106 3.2 6.4 0.00 0.00 0.00 70 1015.8
20260906140738 28 133 4.8 9.7 0.00 0.00 0.00 72 1015.8
20260906140233 27 119 4.8 8.0 0.00 0.00 0.00 74 1015.9
20260906135730 27 130 4.8 8.0 0.00 0.00 0.00 75 1015.5
20260906135226 27 176 1.6 6.4 0.00 0.00 0.00 75 1015.8
20260906134721 27 86 3.2 4.8 0.00 0.00 0.00 77 1015.8
20260906134217 26 49 3.2 4.8 0.00 0.00 0.00 78 1015.7
20260906133712 26 81 1.6 3.2 0.00 0.00 0.00 77 1015.8
20260906133208 26 57 4.8 4.8 0.00 0.00 0.00 79 1015.7
20260906132703 25 154 1.6 4.8 0.00 0.00 0.00 83 1015.7
20260906132158 25 155 1.6 4.8 0.00 0.00 0.00 86 1015.7
20260906131654 24 120 1.6 4.8 0.00 0.00 0.00 88 1015.2
20260906131148 24 136 1.6 4.8 0.00 0.00 0.00 91 1015.4
20260906130644 23 148 3.2 4.8 0.00 0.00 0.00 92 1015.4
20260906130139 23 171 3.2 4.8 0.00 0.00 0.00 93 1015.4
20260906125637 23 180 4.8 6.4 0.00 0.00 0.00 94 1015.2
20260906125136 23 173 4.8 6.4 0.00 0.00 0.00 94 1015.0
20260906124631 22 175 4.8 6.4 0.00 0.00 0.00 94 1015.1
20260906124127 22 175 4.8 6.4 0.00 0.00 0.00 95 1015.0
20260906123626 22 174 4.8 6.4 0.00 0.00 0.00 95 1014.9
20260906123121 22 168 6.4 6.4 0.00 0.00 0.00 95 1014.9
20260906122620 22 178 4.8 6.4 0.00 0.00 0.00 94 1015.0
20260906122116 22 176 4.8 6.4 0.00 0.00 0.00 94 1014.9
20260906121612 22 180 6.4 6.4 0.00 0.00 0.00 94 1014.9
20260906121108 22 176 6.4 6.4 0.00 0.00 0.00 94 1014.8
20260906120603 22 169 4.8 6.4 0.00 0.00 0.00 94 1014.7
20260906120101 22 176 4.8 6.4 0.00 0.00 0.00 94 1014.6
20260906115601 22 182 6.4 6.4 0.00 0.00 0.00 95 1014.4
20260906115056 22 178 6.4 6.4 0.00 0.00 0.00 94 1014.6
20260906114555 22 180 6.4 6.4 0.00 0.00 0.00 94 1014.5
20260906114051 22 180 4.8 6.4 0.00 0.00 0.00 94 1014.3
20260906113550 22 175 6.4 8.0 0.00 0.00 0.00 94 1014.3
20260906113046 22 181 6.4 6.4 0.00 0.00 0.00 94 1014.5
20260906112546 22 180 4.8 6.4 0.00 0.00 0.00 94 1014.2
20260906112042 22 178 6.4 6.4 0.00 0.00 0.00 94 1014.3
20260906111542 22 178 6.4 6.4 0.00 0.00 0.00 93 1014.3
20260906111037 22 170 4.8 6.4 0.00 0.00 0.00 93 1014.2
20260906110537 22 179 4.8 4.8 0.00 0.00 0.00 93 1014.3
20260906110036 22 165 6.4 6.4 0.00 0.00 0.00 93 1014.3
20260906105531 22 183 4.8 6.4 0.00 0.00 0.00 93 1014.2
20260906105027 22 170 6.4 6.4 0.00 0.00 0.00 93 1014.1
20260906104526 22 173 4.8 6.4 0.00 0.00 0.00 93 1014.2
20260906104021 22 175 4.8 4.8 0.00 0.00 0.00 92 1014.1
20260906103519 22 183 6.4 6.4 0.00 0.00 0.00 93 1014.1
20260906103014 22 183 4.8 8.0 0.00 0.00 0.00 93 1014.1
20260906102514 22 170 3.2 4.8 0.00 0.00 0.00 92 1014.2
20260906102015 22 179 4.8 8.0 0.00 0.00 0.00 92 1014.2
20260906101509 22 175 4.8 6.4 0.00 0.00 0.00 92 1014.3
20260906101004 22 169 4.8 6.4 0.00 0.00 0.00 91 1014.3
20260906100459 22 174 4.8 8.0 0.00 0.00 0.00 92 1014.2
20260906095954 22 176 3.2 6.4 0.00 0.00 0.00 92 1014.1
20260906095449 22 182 6.4 6.4 0.00 0.00 0.00 92 1014.0
20260906094944 22 165 6.4 6.4 0.00 0.00 0.00 92 1014.0
20260906094438 22 164 6.4 6.4 0.00 0.00 0.00 92 1014.1
20260906093934 22 176 4.8 6.4 0.00 0.00 0.00 93 1013.8
20260906093430 22 180 4.8 6.4 0.00 0.00 0.00 93 1013.9
20260906092930 22 176 4.8 6.4 0.00 0.00 0.00 92 1013.9
20260906092429 22 182 6.4 6.4 0.00 0.00 0.00 92 1013.7
20260906091925 22 170 4.8 6.4 0.00 0.00 0.00 92 1014.0
20260906091421 22 180 6.4 6.4 0.00 0.00 0.00 91 1013.8
20260906090917 22 176 4.8 6.4 0.00 0.00 0.00 91 1013.7
20260906090412 22 175 3.2 6.4 0.00 0.00 0.00 91 1013.6
20260906085906 22 178 4.8 4.8 0.00 0.00 0.00 92 1013.8
20260906085406 22 178 4.8 4.8 0.00 0.00 0.00 92 1013.8
20260906084905 22 186 3.2 4.8 0.00 0.00 0.00 92 1013.9
20260906084400 23 183 4.8 6.4 0.00 0.00 0.00 92 1013.6
20260906083854 23 170 4.8 4.8 0.00 0.00 0.00 92 1013.7
20260906083350 23 173 4.8 4.8 0.00 0.00 0.00 92 1013.6
20260906082849 23 177 4.8 4.8 0.00 0.00 0.00 91 1013.6
20260906082344 23 173 4.8 6.4 0.00 0.00 0.00 92 1013.6
20260906081841 23 170 3.2 4.8 0.00 0.00 0.00 91 1013.5
20260906081336 23 166 3.2 6.4 0.00 0.00 0.00 92 1013.5
20260906080832 23 177 4.8 4.8 0.00 0.00 0.00 92 1013.5
20260906080328 23 185 4.8 4.8 0.00 0.00 0.00 92 1013.6
20260906075827 23 175 4.8 4.8 0.00 0.00 0.00 92 1013.4
20260906075327 23 175 3.2 4.8 0.00 0.00 0.00 92 1013.6
20260906074823 23 171 4.8 4.8 0.00 0.00 0.00 92 1013.5
20260906074322 23 173 4.8 4.8 0.00 0.00 0.00 91 1013.6
20260906073821 23 173 4.8 4.8 0.00 0.00 0.00 91 1013.5
20260906073322 23 168 3.2 4.8 0.00 0.00 0.00 91 1013.4
20260906072818 23 168 3.2 6.4 0.00 0.00 0.00 91 1013.5
20260906072314 23 181 4.8 4.8 0.00 0.00 0.00 91 1013.7
20260906071809 23 168 3.2 4.8 0.00 0.00 0.00 91 1013.5
20260906071304 23 165 3.2 4.8 0.00 0.00 0.00 91 1013.6
20260906070801 23 180 3.2 4.8 0.00 0.00 0.00 91 1013.6
20260906070256 23 174 3.2 4.8 0.00 0.00 0.00 91 1013.6
20260906065755 23 161 3.2 4.8 0.00 0.00 0.00 91 1013.7
20260906065251 23 178 3.2 4.8 0.00 0.00 0.00 91 1013.6
20260906064747 23 175 4.8 4.8 0.00 0.00 0.00 90 1013.8
20260906064242 23 180 3.2 4.8 0.00 0.00 0.00 89 1013.7
20260906063737 23 168 3.2 4.8 0.00 0.00 0.00 89 1013.8
20260906063233 23 179 3.2 4.8 0.00 0.00 0.00 89 1013.7
20260906062728 23 178 3.2 4.8 0.00 0.00 0.00 89 1014.0
20260906062227 23 162 3.2 3.2 0.00 0.00 0.00 89 1013.9
20260906061723 23 181 3.2 4.8 0.00 0.00 0.00 89 1014.0
20260906061219 23 173 3.2 4.8 0.00 0.00 0.00 89 1013.9
20260906060714 23 175 3.2 4.8 0.00 0.00 0.00 89 1014.0
20260906060212 23 169 3.2 3.2 0.00 0.00 0.00 88 1013.9
20260906055707 23 181 1.6 3.2 0.00 0.00 0.00 88 1013.9
20260906055202 24 166 3.2 4.8 0.00 0.00 0.00 88 1013.8
20260906054658 24 172 3.2 3.2 0.00 0.00 0.00 87 1014.2
20260906054158 24 166 3.2 4.8 0.00 0.00 0.00 88 1013.9
20260906053655 24 180 3.2 4.8 0.00 0.00 0.00 88 1014.0
20260906053150 23 147 1.6 3.2 0.00 0.00 0.00 88 1014.2
20260906052645 23 181 3.2 3.2 0.00 0.00 0.00 88 1014.0
20260906052141 24 170 3.2 3.2 0.00 0.00 0.00 88 1013.8
20260906051638 23 168 3.2 3.2 0.00 0.00 0.00 88 1014.1
20260906051137 24 162 3.2 3.2 0.00 0.00 0.00 88 1014.0
20260906050633 24 167 3.2 3.2 0.00 0.00 0.00 88 1014.0
20260906050128 24 168 3.2 4.8 0.00 0.00 0.00 86 1014.0
20260906045626 24 137 0.0 3.2 0.00 0.00 0.00 86 1014.0
20260906045122 24 179 3.2 3.2 0.00 0.00 0.00 86 1013.8
20260906044617 24 159 3.2 3.2 0.00 0.00 0.00 86 1013.9
20260906044113 24 125 0.0 3.2 0.00 0.00 0.00 86 1013.9
20260906043609 24 154 1.6 3.2 0.00 0.00 0.00 87 1013.8
20260906043104 24 160 1.6 3.2 0.00 0.00 0.00 87 1014.0
20260906042603 24 154 3.2 3.2 0.00 0.00 0.00 86 1013.9
20260906042058 24 156 3.2 3.2 0.00 0.00 0.00 86 1013.8
20260906041554 25 164 1.6 3.2 0.00 0.00 0.00 86 1013.9
20260906041049 25 147 0.0 3.2 0.00 0.00 0.00 85 1013.9
20260906040544 25 125 1.6 1.6 0.00 0.00 0.00 84 1013.7
20260906040039 25 176 1.6 3.2 0.00 0.00 0.00 85 1013.6
20260906035534 25 97 1.6 3.2 0.00 0.00 0.00 85 1013.7
20260906035031 25 172 1.6 3.2 0.00 0.00 0.00 85 1013.6
20260906034530 25 103 0.0 1.6 0.00 0.00 0.00 85 1013.6
20260906034025 25 154 0.0 3.2 0.00 0.00 0.00 87 1013.7
20260906033520 25 187 1.6 3.2 0.00 0.00 0.00 87 1013.5
20260906033016 25 168 1.6 3.2 0.00 0.00 0.00 86 1013.5
20260906032513 25 151 1.6 3.2 0.00 0.00 0.00 86 1013.5
20260906032012 25 131 0.0 3.2 0.00 0.00 0.00 84 1013.5
20260906031508 25 64 0.0 1.6 0.00 0.00 0.00 83 1013.3
20260906031003 25 79 0.0 1.6 0.00 0.00 0.00 84 1013.3
20260906030457 25 100 0.0 1.6 0.00 0.00 0.00 84 1013.2
20260906025957 25 64 0.0 1.6 0.00 0.00 0.00 84 1013.2
20260906025457 25 155 0.0 1.6 0.00 0.00 0.00 85 1013.2
20260906024956 25 65 0.0 3.2 0.00 0.00 0.00 84 1013.1
20260906024456 25 135 0.0 1.6 0.00 0.00 0.00 85 1012.9
20260906023956 25 82 0.0 1.6 0.00 0.00 0.00 85 1012.9
20260906023452 26 144 0.0 1.6 0.00 0.00 0.00 85 1012.9
20260906022947 26 72 1.6 3.2 0.00 0.00 0.00 84 1012.9
20260906022442 26 86 0.0 3.2 0.00 0.00 0.00 84 1012.9
20260906021937 25 190 1.6 3.2 0.00 0.00 0.00 86 1012.6
20260906021438 26 132 0.0 3.2 0.00 0.00 0.00 86 1012.7
20260906020932 26 196 0.0 3.2 0.00 0.00 0.00 87 1012.7
20260906020427 26 50 1.6 1.6 0.00 0.00 0.00 86 1012.6
20260906015921 26 49 0.0 3.2 0.00 0.00 0.00 86 1012.4
20260906015421 26 44 0.0 3.2 0.00 0.00 0.00 86 1012.2
20260906014920 26 156 0.0 1.6 0.00 0.00 0.00 87 1012.5
20260906014420 26 202 0.0 1.6 0.00 0.00 0.00 87 1012.3
20260906013916 26 64 0.0 3.2 0.00 0.00 0.00 86 1012.3
20260906013412 26 125 0.0 1.6 0.00 0.00 0.00 87 1012.4
20260906012907 26 158 0.0 1.6 0.00 0.00 0.00 86 1012.1
20260906012402 26 140 1.6 3.2 0.00 0.00 0.00 86 1012.3
20260906011901 26 180 3.2 6.4 0.00 0.00 0.00 86 1012.2
20260906011356 26 157 4.8 6.4 0.00 0.00 0.00 87 1012.2
20260906010852 26 166 6.4 6.4 0.00 0.00 0.00 86 1012.1
20260906010348 27 159 1.6 4.8 0.00 0.00 0.00 85 1012.1
20260906005843 27 168 3.2 6.4 0.00 0.00 0.00 84 1012.3
20260906005342 27 182 4.8 4.8 0.00 0.00 0.00 85 1011.8
20260906004842 28 174 6.4 6.4 0.00 0.00 0.00 82 1012.1
20260906004341 28 170 3.2 4.8 0.00 0.00 0.00 79 1012.0
20260906003836 29 189 8.0 8.0 0.00 0.00 0.00 79 1012.1
20260906003332 30 173 4.8 6.4 0.00 0.00 0.00 75 1012.1
20260906002827 30 176 4.8 6.4 0.00 0.00 0.00 75 1012.0
20260906002326 30 174 4.8 6.4 0.00 0.00 0.00 73 1012.1
20260906001822 30 176 6.4 6.4 0.00 0.00 0.00 73 1012.2
20260906001318 31 166 3.2 6.4 0.00 0.00 0.00 73 1012.1
20260906000813 31 167 4.8 6.4 0.00 0.00 0.00 71 1012.1
20260906000307 31 174 4.8 6.4 0.00 0.00 0.00 71 1012.1
20260905235802 31 173 4.8 4.8 0.00 0.00 0.00 70 1012.1
20260905235306 31 176 3.2 4.8 0.00 0.00 0.00 70 1012.3
20260905234758 32 160 1.6 3.2 0.00 0.00 0.00 70 1012.1
20260905234253 32 153 3.2 3.2 0.00 0.00 0.00 68 1011.7
20260905233748 32 150 1.6 3.2 0.00 0.00 0.00 69 1012.0
20260905233248 32 135 0.0 3.2 0.00 0.00 0.00 67 1012.0
20260905232747 33 181 1.6 3.2 0.00 0.00 0.00 65 1012.0
20260905232243 33 152 0.0 3.2 0.00 0.00 0.00 64 1011.8
20260905231739 33 104 1.6 1.6 0.00 0.00 0.00 60 1011.8
20260905231234 33 68 1.6 1.6 0.00 0.00 0.00 61 1011.8
20260905230730 33 76 0.0 1.6 0.00 0.00 0.00 61 1011.7
20260905230228 33 131 0.0 3.2 0.00 0.00 0.00 61 1011.7
20260905225727 33 144 0.0 1.6 0.00 0.00 0.00 61 1011.8
20260905225223 33 44 0.0 3.2 0.00 0.00 0.00 57 1011.7
20260905224722 34 75 0.0 1.6 0.00 0.00 0.00 55 1011.8
20260905224217 34 54 0.0 3.2 0.00 0.00 0.00 54 1011.8
20260905223714 35 58 1.6 3.2 0.00 0.00 0.00 49 1011.8
20260905223210 35 103 0.0 3.2 0.00 0.00 0.00 46 1011.7
20260905222706 36 119 3.2 3.2 0.00 0.00 0.00 46 1012.0
20260905222205 36 134 1.6 3.2 0.00 0.00 0.00 44 1011.8
20260905221701 36 154 3.2 4.8 0.00 0.00 0.00 44 1012.1
20260905221158 36 130 4.8 4.8 0.00 0.00 0.00 43 1012.0
20260905220653 36 172 4.8 4.8 0.00 0.00 0.00 44 1012.0
20260905220149 36 172 4.8 9.7 0.00 0.00 0.00 41 1011.7
20260905215648 36 158 8.0 9.7 0.00 0.00 0.00 42 1012.1
20260905215144 36 124 4.8 9.7 0.00 0.00 0.00 42 1011.7
20260905214640 36 166 6.4 6.4 0.00 0.00 0.00 43 1012.0
20260905214135 36 102 3.2 4.8 0.00 0.00 0.00 41 1012.3
20260905213630 36 84 3.2 9.7 0.00 0.00 0.00 41 1012.3
20260905213125 36 157 4.8 6.4 0.00 0.00 0.00 42 1012.4
20260905212621 36 158 8.0 8.0 0.00 0.00 0.00 41 1012.6
20260905212120 36 85 3.2 3.2 0.00 0.00 0.00 42 1012.4
20260905211615 36 144 0.0 4.8 0.00 0.00 0.00 43 1012.7
20260905211111 36 48 0.0 4.8 0.00 0.00 0.00 42 1012.8
20260905210608 36 154 3.2 4.8 0.00 0.00 0.00 43 1012.6
20260905210107 36 155 3.2 6.4 0.00 0.00 0.00 45 1013.0
20260905205606 36 157 4.8 6.4 0.00 0.00 0.00 43 1013.0
20260905205106 36 49 4.8 8.0 0.00 0.00 0.00 42 1013.0
20260905204600 36 62 6.4 8.0 0.00 0.00 0.00 41 1013.1
20260905204056 36 180 3.2 4.8 0.00 0.00 0.00 45 1013.1
20260905203555 36 182 4.8 6.4 0.00 0.00 0.00 42 1013.1
20260905203051 36 165 6.4 9.7 0.00 0.00 0.00 44 1013.0
20260905202546 36 181 9.7 16.1 0.00 0.00 0.00 43 1013.1
20260905202042 36 148 3.2 6.4 0.00 0.00 0.00 45 1013.0
20260905201537 36 97 0.0 3.2 0.00 0.00 0.00 45 1013.2
20260905201037 36 158 8.0 11.3 0.00 0.00 0.00 43 1013.2
20260905200532 36 182 6.4 9.7 0.00 0.00 0.00 44 1013.3
20260905200032 36 170 4.8 8.0 0.00 0.00 0.00 45 1013.5
20260905195526 36 190 3.2 6.4 0.00 0.00 0.00 44 1013.6
20260905195022 36 112 3.2 6.4 0.00 0.00 0.00 46 1013.6
20260905194521 36 87 1.6 4.8 0.00 0.00 0.00 45 1013.8
20260905194021 36 179 3.2 4.8 0.00 0.00 0.00 44 1013.7
20260905193521 35 175 3.2 4.8 0.00 0.00 0.00 45 1013.8
20260905193017 35 48 3.2 3.2 0.00 0.00 0.00 45 1013.9
20260905192512 35 60 3.2 4.8 0.00 0.00 0.00 49 1013.8
20260905192009 35 357 3.2 6.4 0.00 0.00 0.00 47 1014.0
20260905191507 35 132 0.0 4.8 0.00 0.00 0.00 47 1014.0
20260905191006 35 36 0.0 3.2 0.00 0.00 0.00 48 1014.0
20260905190504 35 98 1.6 3.2 0.00 0.00 0.00 46 1014.0
20260905190003 35 158 3.2 4.8 0.00 0.00 0.00 47 1013.9
20260905185458 35 139 3.2 6.4 0.00 0.00 0.00 48 1014.2
20260905184957 35 91 3.2 4.8 0.00 0.00 0.00 49 1014.1
20260905184452 35 166 3.2 6.4 0.00 0.00 0.00 50 1014.2
20260905183950 35 154 4.8 6.4 0.00 0.00 0.00 50 1014.3
20260905183445 35 129 3.2 8.0 0.00 0.00 0.00 49 1014.4
20260905182940 35 166 4.8 6.4 0.00 0.00 0.00 50 1014.3
20260905182439 35 157 4.8 6.4 0.00 0.00 0.00 51 1014.5
20260905181935 35 152 4.8 4.8 0.00 0.00 0.00 51 1014.4
20260905181435 35 171 4.8 6.4 0.00 0.00 0.00 51 1014.3
20260905180934 35 165 8.0 9.7 0.00 0.00 0.00 50 1014.4
20260905180429 35 166 4.8 9.7 0.00 0.00 0.00 50 1014.6
20260905175924 35 183 11.3 11.3 0.00 0.00 0.00 50 1014.7
20260905175423 35 158 9.7 9.7 0.00 0.00 0.00 52 1014.8